Regional Weather Roundup
Issued by NWS

Home | Current Version | Previous Version | Graphics & Text | Print | Product List | Glossary On
Versions: 1 2 3 4 5 6 7 8 9 10 11 12 13 14 15 16 17 18 19 20 21 22 23 24 25 26 27 28 29 30 31 32 33 34 35 36 37 38 39 40 41 42 43 44 45 46 47 48 49 50
000
ASUS43 KTOP 221259
RWRKS

WEATHER ROUNDUP FOR KANSAS
NATIONAL WEATHER SERVICE GOODLAND KS
800 AM CDT FRI MAY 22 2015

NOTE:  "FAIR" INDICATES FEW OR NO CLOUDS BELOW 12,000 FEET WITH NO
SIGNIFICANT WEATHER AND/OR OBSTRUCTIONS TO VISIBILITY.

KSZ001>006-013>018-027>032-041>047-221400-
NORTHWEST KANSAS

CITY           SKY/WX    TMP DP  RH WIND       PRES   REMARKS
GOODLAND       LGT RAIN  47  46  97 SE14G23   30.09F
HAYS           CLOUDY    50  43  76 SE15      30.18F
HILL CITY      RAIN      50  48  93 SE12      30.16F FOG
RUSSELL        LGT RAIN  51  49  92 S10       30.21R
$$

KSZ061>065-074>080-084>089-221400-
SOUTHWEST KANSAS

CITY           SKY/WX    TMP DP  RH WIND       PRES   REMARKS
DODGE CITY     CLOUDY    49  46  90 SE18G25   30.18R
ELKHART          N/A     50  43  77 S17         N/A
GARDEN CITY    CLOUDY    48  47  96 SE21G29   30.13F
GREAT BEND     CLOUDY    50  46  87 SE7       30.20F
LIBERAL        CLOUDY    52  46  82 SE16      30.14F
$$

KSZ066>073-081>083-090>101-221400-
SOUTHEAST KANSAS

CITY           SKY/WX    TMP DP  RH WIND       PRES   REMARKS
CHANUTE        CLOUDY    52  49  89 S3        30.28R
COFFEYVILLE    CLOUDY    53  49  86 CALM      30.27R
HUTCHINSON     RAIN      52  48  86 E3        30.24F FOG
NEWTON         CLOUDY    52  45  76 SE5       30.26F
PARSONS        CLOUDY    54  51  90 CALM      30.28R
WICHITA INTL   RAIN      52  48  86 E8        30.23F FOG
WICHITA JABRA  LGT RAIN  52  48  86 E5        30.24F
WINFIELD       LGT RAIN  52  49  89 E3        30.26F
$$

KSZ007>012-019>026-033>040-048>060-102>105-221400-
NORTHEAST KANSAS

CITY           SKY/WX    TMP DP  RH WIND       PRES   REMARKS
CONCORDIA      CLOUDY    53  45  74 S12       30.24R
EMPORIA        CLOUDY    51  48  89 S6        30.27R
LAWRENCE       CLOUDY    50  48  93 CALM      30.25R
MANHATTAN      CLOUDY    50  48  93 CALM      30.26R
OLATHE IND     CLOUDY    53  49  86 CALM      30.25R
OLATHE EXE     CLOUDY    53  50  89 CALM      30.24R
SALINA         LGT RAIN  52  48  86 SE6       30.25R
TOPEKA BILLARD CLOUDY    51  49  92 CALM      30.26R
TOPEKA FORBES  CLOUDY    52  48  86 SW3       30.26R
$$



USA.gov is the U.S. government's official web portal to all federal, state and local government web resources and services.